| time (UTC) | temp F | wind direction | speed MPH | gust MPH | rain 1hr in | rain 24hr in | rain mn in | humidity % | barometer mb |
| 20260505053045 | 63 | 360 | 7.0 | 14.0 | 0.01 | 0.01 | 0.00 | 58 | 1007.1 |
| 20260505051555 | 63 | 360 | 6.0 | 12.0 | 0.01 | 0.01 | 0.00 | 60 | 1006.7 |
| 20260505041540 | 70 | 360 | 3.0 | 7.0 | 0.00 | 0.00 | 0.00 | 55 | 1005.3 |
| 20260505040100 | 70 | 360 | 2.0 | 6.0 | 0.00 | 0.00 | 0.00 | 72 | 1004.9 |
| 20260505034508 | 70 | 360 | 1.0 | 6.0 | 0.00 | 0.00 | 0.00 | 73 | 1004.7 |
| 20260505033027 | 70 | 360 | 1.0 | 4.0 | 0.00 | 0.00 | 0.00 | 73 | 1004.6 |
| 20260505031544 | 70 | 360 | 0.0 | 4.0 | 0.00 | 0.00 | 0.00 | 72 | 1004.5 |
| 20260505030056 | 71 | 360 | 0.0 | 0.0 | 0.00 | 0.00 | 0.00 | 68 | 1004.5 |
| 20260505024511 | 71 | 360 | 0.0 | 0.0 | 0.00 | 0.00 | 0.00 | 67 | 1004.3 |
| 20260505023022 | 72 | 360 | 0.0 | 0.0 | 0.00 | 0.00 | 0.00 | 65 | 1004.0 |
| 20260505021544 | 73 | 360 | 0.0 | 0.0 | 0.00 | 0.00 | 0.00 | 63 | 1003.8 |
| 20260505020055 | 74 | 360 | 0.0 | 0.0 | 0.00 | 0.00 | 0.00 | 62 | 1003.6 |
| 20260505014512 | 74 | 360 | 0.0 | 0.0 | 0.00 | 0.00 | 0.00 | 61 | 1003.4 |
| 20260505013031 | 75 | 360 | 0.0 | 0.0 | 0.00 | 0.00 | 0.00 | 59 | 1003.2 |
| 20260505011555 | 75 | 360 | 0.0 | 0.0 | 0.00 | 0.00 | 0.00 | 58 | 1003.1 |
| 20260505010014 | 76 | 360 | 0.0 | 0.0 | 0.00 | 0.00 | 0.00 | 57 | 1002.9 |
| 20260505004521 | 77 | 360 | 0.0 | 1.0 | 0.00 | 0.00 | 0.00 | 55 | 1002.8 |
| 20260505003042 | 77 | 360 | 0.0 | 2.0 | 0.00 | 0.00 | 0.00 | 55 | 1002.7 |
| 20260505001556 | 78 | 360 | 0.0 | 2.0 | 0.00 | 0.00 | 0.00 | 55 | 1002.6 |
| 20260505000014 | 78 | 360 | 1.0 | 3.0 | 0.00 | 0.00 | 0.00 | 53 | 1002.6 |
| 20260504234526 | 79 | 360 | 1.0 | 3.0 | 0.00 | 0.00 | 0.00 | 51 | 1002.6 |
| 20260504233039 | 79 | 360 | 1.0 | 4.0 | 0.00 | 0.00 | 0.00 | 49 | 1002.7 |
| 20260504231558 | 80 | 360 | 2.0 | 4.0 | 0.00 | 0.00 | 0.00 | 52 | 1002.7 |
| 20260504230008 | 79 | 360 | 2.0 | 11.0 | 0.00 | 0.00 | 0.00 | 48 | 1002.7 |
| 20260504224524 | 80 | 360 | 1.0 | 10.0 | 0.00 | 0.00 | 0.00 | 52 | 1002.7 |
| 20260504223034 | 80 | 360 | 3.0 | 10.0 | 0.00 | 0.00 | 0.00 | 50 | 1002.7 |
| 20260504221604 | 80 | 360 | 3.0 | 8.0 | 0.00 | 0.00 | 0.00 | 51 | 1002.7 |
| 20260504220024 | 81 | 360 | 4.0 | 9.0 | 0.00 | 0.00 | 0.00 | 47 | 1002.8 |
| 20260504214538 | 81 | 360 | 2.0 | 7.0 | 0.00 | 0.00 | 0.00 | 50 | 1002.9 |
| 20260504213112 | 81 | 360 | 3.0 | 11.0 | 0.00 | 0.00 | 0.00 | 47 | 1002.8 |
| 20260504211508 | 81 | 360 | 4.0 | 10.0 | 0.00 | 0.00 | 0.00 | 49 | 1002.9 |
| 20260504210026 | 81 | 360 | 1.0 | 7.0 | 0.00 | 0.00 | 0.00 | 49 | 1002.9 |
| 20260504204538 | 80 | 360 | 3.0 | 7.0 | 0.00 | 0.00 | 0.00 | 51 | 1003.1 |
| 20260504203056 | 81 | 360 | 2.0 | 7.0 | 0.00 | 0.00 | 0.00 | 48 | 1003.3 |
| 20260504201505 | 80 | 360 | 3.0 | 11.0 | 0.00 | 0.00 | 0.00 | 49 | 1003.4 |
| 20260504200026 | 80 | 360 | 4.0 | 10.0 | 0.00 | 0.00 | 0.00 | 49 | 1003.5 |
| 20260504194542 | 79 | 360 | 2.0 | 6.0 | 0.00 | 0.00 | 0.00 | 47 | 1003.6 |
| 20260504193055 | 79 | 360 | 3.0 | 8.0 | 0.00 | 0.00 | 0.00 | 49 | 1003.6 |
| 20260504191529 | 79 | 360 | 3.0 | 8.0 | 0.00 | 0.00 | 0.00 | 50 | 1003.6 |
| 20260504190030 | 78 | 360 | 3.0 | 6.0 | 0.00 | 0.00 | 0.00 | 49 | 1003.8 |
| 20260504184546 | 78 | 360 | 2.0 | 10.0 | 0.00 | 0.00 | 0.00 | 53 | 1003.8 |
| 20260504183006 | 78 | 360 | 3.0 | 10.0 | 0.00 | 0.00 | 0.00 | 53 | 1004.0 |
| 20260504181522 | 77 | 360 | 1.0 | 6.0 | 0.00 | 0.00 | 0.00 | 55 | 1003.9 |
| 20260504180048 | 77 | 360 | 4.0 | 9.0 | 0.00 | 0.00 | 0.00 | 52 | 1004.1 |
| 20260504174550 | 76 | 360 | 2.0 | 9.0 | 0.00 | 0.00 | 0.00 | 50 | 1004.3 |
| 20260504173006 | 76 | 360 | 2.0 | 9.0 | 0.00 | 0.00 | 0.00 | 53 | 1004.3 |
| 20260504171532 | 76 | 360 | 3.0 | 7.0 | 0.00 | 0.00 | 0.00 | 54 | 1004.3 |
| 20260504081538 | 62 | 360 | 0.0 | 2.0 | 0.00 | 0.00 | 0.00 | 65 | 1007.2 |
| 20260504080114 | 62 | 360 | 0.0 | 0.0 | 0.00 | 0.00 | 0.00 | 67 | 1007.3 |